Time,TemperatureF,DewpointF,PressureIn,WindDirection,WindDirectionDegrees,WindSpeedMPH,WindSpeedGustMPH,Humidity,HourlyPrecipIn,Conditions,Clouds,dailyrainin,SolarRadiationWatts/m^2,SoftwareType,DateUTC
2013-03-08 00:00:00,20.4,17.2,30.27,South,177,7.0,11.0,87,0.00,,SKC,0.00,0.00,VWS V14.00,2013-03-08 06:00:00,
2013-03-08 00:05:00,20.3,17.1,30.27,South,187,11.0,11.0,87,0.00,,SKC,0.00,0.00,VWS V14.00,2013-03-08 06:05:00,
2013-03-08 00:10:00,20.3,17.1,30.27,SSW,194,6.0,13.0,87,0.00,,SKC,0.00,0.00,VWS V14.00,2013-03-08 06:10:00,
2013-03-08 00:15:00,20.2,17.0,30.28,SSE,157,7.0,12.0,87,0.00,,SKC,0.00,0.00,VWS V14.00,2013-03-08 06:15:00,
2013-03-08 00:20:00,20.1,16.9,30.28,South,180,7.0,13.0,87,0.00,,SKC,0.00,0.00,VWS V14.00,2013-03-08 06:20:00,
2013-03-08 00:25:00,20.0,16.8,30.27,SSW,194,7.0,10.0,87,0.00,,SKC,0.00,0.00,VWS V14.00,2013-03-08 06:25:00,
2013-03-08 00:30:00,19.9,16.7,30.27,SSW,196,6.0,14.0,87,0.00,,SKC,0.00,0.00,VWS V14.00,2013-03-08 06:30:00,
2013-03-08 00:35:00,19.8,16.6,30.27,South,175,6.0,14.0,87,0.00,,SKC,0.00,0.00,VWS V14.00,2013-03-08 06:35:00,
2013-03-08 00:40:00,19.8,16.6,30.28,SSW,199,6.0,11.0,87,0.00,,SKC,0.00,0.00,VWS V14.00,2013-03-08 06:40:00,
2013-03-08 00:45:00,19.7,16.5,30.28,SSE,164,5.0,10.0,87,0.00,,SKC,0.00,0.00,VWS V14.00,2013-03-08 06:45:00,
2013-03-08 00:50:00,19.5,16.3,30.27,South,190,7.0,10.0,87,0.00,,SKC,0.00,0.00,VWS V14.00,2013-03-08 06:50:00,
2013-03-08 00:55:00,19.5,16.5,30.27,SSW,192,9.0,12.0,88,0.00,,SKC,0.00,0.00,VWS V14.00,2013-03-08 06:55:00,
2013-03-08 01:00:00,19.4,18.5,30.27,South,184,6.0,13.0,96,0.00,,SKC,0.00,0.00,VWS V14.00,2013-03-08 07:00:00,
2013-03-08 01:05:00,19.3,16.3,30.27,SSW,195,5.0,10.0,88,0.00,,SKC,0.00,0.00,VWS V14.00,2013-03-08 07:05:00,
2013-03-08 01:10:00,19.2,16.2,30.27,South,190,9.0,12.0,88,0.00,,SKC,0.00,0.00,VWS V14.00,2013-03-08 07:10:00,
2013-03-08 01:15:00,19.0,16.0,30.28,SSE,161,10.0,12.0,88,0.00,,SKC,0.00,0.00,VWS V14.00,2013-03-08 07:15:00,
2013-03-08 01:20:00,18.9,15.9,30.28,South,187,8.0,14.0,88,0.00,,SKC,0.00,0.00,VWS V14.00,2013-03-08 07:20:00,
2013-03-08 01:25:00,18.9,15.9,30.28,SSW,207,8.0,11.0,88,0.00,,SKC,0.00,0.00,VWS V14.00,2013-03-08 07:25:00,
2013-03-08 01:30:00,18.8,15.8,30.28,SSW,207,12.0,12.0,88,0.00,,SKC,0.00,0.00,VWS V14.00,2013-03-08 07:30:00,
2013-03-08 01:35:00,18.7,15.7,30.28,South,180,6.0,12.0,88,0.00,,SKC,0.00,0.00,VWS V14.00,2013-03-08 07:35:00,
2013-03-08 01:40:00,18.6,15.6,30.28,South,186,6.0,12.0,88,0.00,,SKC,0.00,0.00,VWS V14.00,2013-03-08 07:40:00,
2013-03-08 01:45:00,18.6,15.9,30.28,South,182,8.0,10.0,89,0.00,,SKC,0.00,0.00,VWS V14.00,2013-03-08 07:45:00,
2013-03-08 01:50:00,18.5,15.8,30.28,South,171,10.0,14.0,89,0.00,,SKC,0.00,0.00,VWS V14.00,2013-03-08 07:50:00,
2013-03-08 01:55:00,18.5,15.8,30.28,SSW,199,5.0,11.0,89,0.00,,SKC,0.00,0.00,VWS V14.00,2013-03-08 07:55:00,
2013-03-08 02:00:00,18.4,15.7,30.27,South,182,7.0,10.0,89,0.00,,SKC,0.00,0.00,VWS V14.00,2013-03-08 08:00:00,
2013-03-08 02:05:00,18.4,15.7,30.27,South,190,8.0,12.0,89,0.00,,SKC,0.00,0.00,VWS V14.00,2013-03-08 08:05:00,
2013-03-08 02:10:00,18.3,15.6,30.27,South,186,6.0,10.0,89,0.00,,SKC,0.00,0.00,VWS V14.00,2013-03-08 08:10:00,
2013-03-08 02:15:00,18.2,15.5,30.27,South,186,8.0,8.0,89,0.00,,SKC,0.00,0.00,VWS V14.00,2013-03-08 08:15:00,
2013-03-08 02:20:00,18.2,15.5,30.27,SSW,210,7.0,10.0,89,0.00,,SKC,0.00,0.00,VWS V14.00,2013-03-08 08:20:00,
2013-03-08 02:25:00,18.2,15.5,30.27,South,186,6.0,12.0,89,0.00,,SKC,0.00,0.00,VWS V14.00,2013-03-08 08:25:00,
2013-03-08 02:30:00,18.1,15.4,30.27,South,182,5.0,11.0,89,0.00,,SKC,0.00,0.00,VWS V14.00,2013-03-08 08:30:00,
2013-03-08 02:35:00,18.1,15.7,30.27,SSE,168,8.0,11.0,90,0.00,,SKC,0.00,0.00,VWS V14.00,2013-03-08 08:35:00,
2013-03-08 02:40:00,18.0,15.6,30.27,SSW,196,7.0,10.0,90,0.00,,SKC,0.00,0.00,VWS V14.00,2013-03-08 08:40:00,
2013-03-08 02:45:00,17.9,15.2,30.27,South,180,6.0,10.0,89,0.00,,SKC,0.00,0.00,VWS V14.00,2013-03-08 08:45:00,
2013-03-08 02:50:00,17.8,15.4,30.27,South,177,7.0,13.0,90,0.00,,SKC,0.00,0.00,VWS V14.00,2013-03-08 08:50:00,
2013-03-08 02:55:00,17.7,15.3,30.27,SSW,194,6.0,11.0,90,0.00,,SKC,0.00,0.00,VWS V14.00,2013-03-08 08:55:00,
2013-03-08 03:00:00,17.6,15.2,30.27,SW,216,9.0,11.0,90,0.00,,SKC,0.00,0.00,VWS V14.00,2013-03-08 09:00:00,
2013-03-08 03:05:00,17.5,15.1,30.27,SSW,202,10.0,11.0,90,0.00,,SKC,0.00,0.00,VWS V14.00,2013-03-08 09:05:00,
2013-03-08 03:10:00,17.4,15.0,30.27,SSW,193,8.0,11.0,90,0.00,,SKC,0.00,0.00,VWS V14.00,2013-03-08 09:10:00,
2013-03-08 03:15:00,17.3,14.9,30.26,South,182,9.0,12.0,90,0.00,,SKC,0.00,0.00,VWS V14.00,2013-03-08 09:15:00,
2013-03-08 03:20:00,17.2,14.8,30.26,South,182,9.0,11.0,90,0.00,,SKC,0.00,0.00,VWS V14.00,2013-03-08 09:20:00,
2013-03-08 03:25:00,17.1,14.7,30.26,South,190,10.0,11.0,90,0.00,,SKC,0.00,0.00,VWS V14.00,2013-03-08 09:25:00,
2013-03-08 03:30:00,17.0,14.6,30.26,SSW,209,10.0,12.0,90,0.00,,SKC,0.00,0.00,VWS V14.00,2013-03-08 09:30:00,
2013-03-08 03:35:00,16.9,14.5,30.26,South,185,8.0,11.0,90,0.00,,SKC,0.00,0.00,VWS V14.00,2013-03-08 09:35:00,
2013-03-08 03:40:00,16.8,14.4,30.26,South,183,7.0,11.0,90,0.00,,SKC,0.00,0.00,VWS V14.00,2013-03-08 09:40:00,
2013-03-08 03:45:00,16.7,14.3,30.26,South,179,9.0,11.0,90,0.00,,SKC,0.00,0.00,VWS V14.00,2013-03-08 09:45:00,
2013-03-08 03:50:00,16.7,14.5,30.25,SSW,194,11.0,13.0,91,0.00,,SKC,0.00,0.00,VWS V14.00,2013-03-08 09:50:00,
2013-03-08 03:55:00,16.7,14.5,30.25,SSW,207,7.0,12.0,91,0.00,,SKC,0.00,0.00,VWS V14.00,2013-03-08 09:55:00,
2013-03-08 04:00:00,16.6,14.4,30.26,SSW,196,7.0,11.0,91,0.00,,SKC,0.00,0.00,VWS V14.00,2013-03-08 10:00:00,
2013-03-08 04:05:00,16.5,14.3,30.26,South,188,9.0,12.0,91,0.00,,SKC,0.00,0.00,VWS V14.00,2013-03-08 10:05:00,
2013-03-08 04:10:00,16.4,14.2,30.26,SSW,194,7.0,12.0,91,0.00,,SKC,0.00,0.00,VWS V14.00,2013-03-08 10:10:00,
2013-03-08 04:15:00,16.4,14.2,30.26,SSW,197,9.0,12.0,91,0.00,,SKC,0.00,0.00,VWS V14.00,2013-03-08 10:15:00,
2013-03-08 04:20:00,16.3,14.1,30.26,South,190,7.0,13.0,91,0.00,,SKC,0.00,0.00,VWS V14.00,2013-03-08 10:20:00,
2013-03-08 04:25:00,16.2,14.0,30.26,SSW,200,6.0,12.0,91,0.00,,SKC,0.00,0.00,VWS V14.00,2013-03-08 10:25:00,
2013-03-08 04:30:00,16.2,14.0,30.26,South,176,6.0,10.0,91,0.00,,SKC,0.00,0.00,VWS V14.00,2013-03-08 10:30:00,
2013-03-08 04:35:00,16.1,13.9,30.26,SSW,213,6.0,12.0,91,0.00,,SKC,0.00,0.00,VWS V14.00,2013-03-08 10:35:00,
2013-03-08 04:40:00,16.0,13.8,30.26,South,186,6.0,10.0,91,0.00,,SKC,0.00,0.00,VWS V14.00,2013-03-08 10:40:00,
2013-03-08 04:45:00,16.0,13.8,30.26,SSW,192,7.0,10.0,91,0.00,,SKC,0.00,0.00,VWS V14.00,2013-03-08 10:45:00,
2013-03-08 04:50:00,15.9,13.7,30.26,South,179,6.0,10.0,91,0.00,,SKC,0.00,0.00,VWS V14.00,2013-03-08 10:50:00,
2013-03-08 04:55:00,15.9,13.7,30.26,South,169,8.0,11.0,91,0.00,,SKC,0.00,0.00,VWS V14.00,2013-03-08 10:55:00,
2013-03-08 05:00:00,15.9,13.7,30.26,South,178,7.0,12.0,91,0.00,,SKC,0.00,0.00,VWS V14.00,2013-03-08 11:00:00,
2013-03-08 05:05:00,15.9,13.7,30.26,SSE,167,5.0,12.0,91,0.00,,SKC,0.00,0.00,VWS V14.00,2013-03-08 11:05:00,
2013-03-08 05:10:00,15.9,13.7,30.26,South,189,7.0,10.0,91,0.00,,SKC,0.00,0.00,VWS V14.00,2013-03-08 11:10:00,
2013-03-08 05:15:00,15.9,13.7,30.26,South,176,7.0,11.0,91,0.00,,SKC,0.00,0.00,VWS V14.00,2013-03-08 11:15:00,
2013-03-08 05:20:00,15.9,13.7,30.26,South,188,6.0,10.0,91,0.00,,SKC,0.00,0.00,VWS V14.00,2013-03-08 11:20:00,
2013-03-08 05:25:00,15.8,13.9,30.26,South,187,4.0,10.0,92,0.00,,SKC,0.00,0.00,VWS V14.00,2013-03-08 11:25:00,
2013-03-08 05:30:00,15.8,13.9,30.26,South,186,6.0,7.0,92,0.00,,SKC,0.00,0.00,VWS V14.00,2013-03-08 11:30:00,
2013-03-08 05:35:00,15.8,13.9,30.27,South,191,7.0,11.0,92,0.00,,SKC,0.00,0.00,VWS V14.00,2013-03-08 11:35:00,
2013-03-08 05:40:00,15.8,13.9,30.26,SSW,192,6.0,9.0,92,0.00,,SKC,0.00,0.00,VWS V14.00,2013-03-08 11:40:00,
2013-03-08 05:45:00,15.8,13.9,30.26,South,190,6.0,10.0,92,0.00,,SKC,0.00,0.00,VWS V14.00,2013-03-08 11:45:00,
2013-03-08 05:50:00,15.8,13.9,30.26,South,184,3.0,6.0,92,0.00,,SKC,0.00,0.00,VWS V14.00,2013-03-08 11:50:00,
2013-03-08 05:55:00,15.7,13.8,30.26,SSW,196,5.0,6.0,92,0.00,,SKC,0.00,0.00,VWS V14.00,2013-03-08 11:55:00,
2013-03-08 06:00:00,15.7,13.8,30.26,South,175,3.0,7.0,92,0.00,,SKC,0.00,0.00,VWS V14.00,2013-03-08 12:00:00,
2013-03-08 06:05:00,15.7,13.8,30.27,SSW,201,5.0,10.0,92,0.00,,SKC,0.00,0.00,VWS V14.00,2013-03-08 12:05:00,
2013-03-08 06:10:00,15.7,13.8,30.27,South,190,4.0,6.0,92,0.00,,SKC,0.00,0.00,VWS V14.00,2013-03-08 12:10:00,
2013-03-08 06:15:00,15.7,13.8,30.26,South,180,3.0,6.0,92,0.00,,SKC,0.00,0.00,VWS V14.00,2013-03-08 12:15:00,
2013-03-08 06:20:00,15.7,13.8,30.27,SSW,194,3.0,5.0,92,0.00,,SKC,0.00,0.00,VWS V14.00,2013-03-08 12:20:00,
2013-03-08 06:25:00,15.7,13.8,30.27,South,189,3.0,5.0,92,0.00,,SKC,0.00,0.00,VWS V14.00,2013-03-08 12:25:00,
2013-03-08 06:30:00,15.6,13.7,30.27,SSW,192,4.0,7.0,92,0.00,,SKC,0.00,0.00,VWS V14.00,2013-03-08 12:30:00,
2013-03-08 06:35:00,15.5,13.6,30.26,South,182,4.0,9.0,92,0.00,,SKC,0.00,0.00,VWS V14.00,2013-03-08 12:35:00,
2013-03-08 06:40:00,15.5,13.6,30.26,South,186,6.0,6.0,92,0.00,,SKC,0.00,0.00,VWS V14.00,2013-03-08 12:40:00,
2013-03-08 06:45:00,15.5,13.6,30.26,South,188,3.0,9.0,92,0.00,,SKC,0.00,7.00,VWS V14.00,2013-03-08 12:45:00,
2013-03-08 06:50:00,15.5,13.6,30.25,South,174,5.0,7.0,92,0.00,,SKC,0.00,11.00,VWS V14.00,2013-03-08 12:50:00,
2013-03-08 06:55:00,15.5,13.6,30.25,South,173,4.0,7.0,92,0.00,,SKC,0.00,21.00,VWS V14.00,2013-03-08 12:55:00,
2013-03-08 07:00:00,15.7,13.8,30.25,South,187,5.0,10.0,92,0.00,,SKC,0.00,30.00,VWS V14.00,2013-03-08 13:00:00,
2013-03-08 07:05:00,15.7,13.8,30.25,South,183,4.0,6.0,92,0.00,,SKC,0.00,32.00,VWS V14.00,2013-03-08 13:05:00,
2013-03-08 07:10:00,15.9,14.0,30.25,SSW,196,3.0,7.0,92,0.00,,SKC,0.00,33.00,VWS V14.00,2013-03-08 13:10:00,
2013-03-08 07:15:00,15.9,14.0,30.25,SSW,194,3.0,7.0,92,0.00,,SKC,0.00,33.00,VWS V14.00,2013-03-08 13:15:00,
2013-03-08 07:20:00,16.0,14.1,30.26,South,190,3.0,6.0,92,0.00,,SKC,0.00,30.00,VWS V14.00,2013-03-08 13:20:00,
2013-03-08 07:25:00,16.0,14.1,30.25,SSW,196,3.0,5.0,92,0.00,,SKC,0.00,37.00,VWS V14.00,2013-03-08 13:25:00,
2013-03-08 07:30:00,16.1,14.2,30.25,South,184,2.0,6.0,92,0.00,,SKC,0.00,70.00,VWS V14.00,2013-03-08 13:30:00,
2013-03-08 07:35:00,16.2,14.3,30.25,South,177,6.0,7.0,92,0.00,,SKC,0.00,91.00,VWS V14.00,2013-03-08 13:35:00,
2013-03-08 07:40:00,16.4,14.5,30.25,South,186,3.0,6.0,92,0.00,,SKC,0.00,95.00,VWS V14.00,2013-03-08 13:40:00,
2013-03-08 07:45:00,16.7,14.8,30.25,SSW,196,8.0,10.0,92,0.00,,SKC,0.00,105.00,VWS V14.00,2013-03-08 13:45:00,
2013-03-08 07:50:00,17.0,15.1,30.25,South,182,8.0,8.0,92,0.00,,SKC,0.00,113.00,VWS V14.00,2013-03-08 13:50:00,
2013-03-08 07:55:00,17.2,15.3,30.25,SSW,200,3.0,8.0,92,0.00,,SKC,0.00,134.00,VWS V14.00,2013-03-08 13:55:00,
2013-03-08 08:00:00,17.5,15.6,30.25,South,180,4.0,5.0,92,0.00,,SKC,0.00,163.00,VWS V14.00,2013-03-08 14:00:00,
2013-03-08 08:05:00,17.9,16.0,30.26,SSW,211,6.0,7.0,92,0.00,,SKC,0.00,172.00,VWS V14.00,2013-03-08 14:05:00,
2013-03-08 08:10:00,18.3,16.1,30.25,SSE,166,6.0,7.0,91,0.00,,SKC,0.00,199.00,VWS V14.00,2013-03-08 14:10:00,
2013-03-08 08:15:00,18.7,16.5,30.26,South,183,3.0,6.0,91,0.00,,SKC,0.00,223.00,VWS V14.00,2013-03-08 14:15:00,
2013-03-08 08:20:00,19.1,16.7,30.26,SSW,198,2.0,6.0,90,0.00,,SKC,0.00,151.00,VWS V14.00,2013-03-08 14:20:00,
2013-03-08 08:25:00,19.3,16.9,30.26,SSW,198,3.0,6.0,90,0.00,,SKC,0.00,149.00,VWS V14.00,2013-03-08 14:25:00,
2013-03-08 08:30:00,19.6,16.9,30.26,SSW,204,5.0,8.0,89,0.00,,SKC,0.00,232.00,VWS V14.00,2013-03-08 14:30:00,
2013-03-08 08:35:00,19.9,17.2,30.26,SSW,212,5.0,7.0,89,0.00,,SKC,0.00,267.00,VWS V14.00,2013-03-08 14:35:00,
2013-03-08 08:40:00,20.3,17.3,30.26,SSW,200,6.0,9.0,88,0.00,,SKC,0.00,295.00,VWS V14.00,2013-03-08 14:40:00,
2013-03-08 08:45:00,20.6,17.4,30.26,SSW,192,11.0,11.0,87,0.00,,SKC,0.00,267.00,VWS V14.00,2013-03-08 14:45:00,
2013-03-08 08:50:00,20.7,17.5,30.26,SSW,208,6.0,11.0,87,0.00,,SKC,0.00,264.00,VWS V14.00,2013-03-08 14:50:00,
2013-03-08 08:55:00,20.9,17.4,30.26,SSW,205,4.0,9.0,86,0.00,,SKC,0.00,311.00,VWS V14.00,2013-03-08 14:55:00,
2013-03-08 09:00:00,21.2,17.7,30.26,South,175,3.0,7.0,86,0.00,,SKC,0.00,348.00,VWS V14.00,2013-03-08 15:00:00,
2013-03-08 09:05:00,21.4,17.9,30.26,South,184,4.0,8.0,86,0.00,,SKC,0.00,352.00,VWS V14.00,2013-03-08 15:05:00,
2013-03-08 09:10:00,21.6,17.8,30.26,South,170,7.0,9.0,85,0.00,,SKC,0.00,367.00,VWS V14.00,2013-03-08 15:10:00,
2013-03-08 09:15:00,21.7,17.9,30.26,SSW,203,5.0,11.0,85,0.00,,SKC,0.00,385.00,VWS V14.00,2013-03-08 15:15:00,
2013-03-08 09:20:00,21.8,18.0,30.26,SSW,206,8.0,9.0,85,0.00,,SKC,0.00,380.00,VWS V14.00,2013-03-08 15:20:00,
2013-03-08 09:25:00,22.2,18.1,30.25,SSW,196,5.0,9.0,84,0.00,,SKC,0.00,373.00,VWS V14.00,2013-03-08 15:25:00,
2013-03-08 09:30:00,22.4,18.3,30.25,SSW,194,6.0,12.0,84,0.00,,SKC,0.00,445.00,VWS V14.00,2013-03-08 15:30:00,
2013-03-08 09:35:00,22.7,18.6,30.25,SSW,201,5.0,10.0,84,0.00,,SKC,0.00,445.00,VWS V14.00,2013-03-08 15:35:00,
2013-03-08 09:40:00,23.1,19.0,30.25,SW,214,7.0,12.0,84,0.00,,SKC,0.00,434.00,VWS V14.00,2013-03-08 15:40:00,
2013-03-08 09:45:00,23.5,19.1,30.24,SW,221,5.0,10.0,83,0.00,,SKC,0.00,464.00,VWS V14.00,2013-03-08 15:45:00,
2013-03-08 09:50:00,24.0,19.6,30.24,SSW,199,9.0,12.0,83,0.00,,SKC,0.00,397.00,VWS V14.00,2013-03-08 15:50:00,
2013-03-08 09:55:00,24.3,19.6,30.24,SSW,197,7.0,11.0,82,0.00,,SKC,0.00,448.00,VWS V14.00,2013-03-08 15:55:00,
2013-03-08 10:00:00,24.7,19.7,30.25,SSW,208,7.0,10.0,81,0.00,,SKC,0.00,519.00,VWS V14.00,2013-03-08 16:00:00,
2013-03-08 10:05:00,25.2,20.2,30.24,SSW,211,5.0,7.0,81,0.00,,SKC,0.00,504.00,VWS V14.00,2013-03-08 16:05:00,
2013-03-08 10:10:00,25.7,20.4,30.24,SSW,200,3.0,10.0,80,0.00,,SKC,0.00,541.00,VWS V14.00,2013-03-08 16:10:00,
2013-03-08 10:15:00,26.1,20.5,30.24,WSW,240,4.0,7.0,79,0.00,,SKC,0.00,452.00,VWS V14.00,2013-03-08 16:15:00,
2013-03-08 10:20:00,26.5,20.9,30.24,SSW,208,6.0,8.0,79,0.00,,SKC,0.00,547.00,VWS V14.00,2013-03-08 16:20:00,
2013-03-08 10:25:00,26.8,20.9,30.25,SSW,198,11.0,12.0,78,0.00,,SKC,0.00,424.00,VWS V14.00,2013-03-08 16:25:00,
2013-03-08 10:30:00,26.7,20.8,30.25,SSW,195,5.0,11.0,78,0.00,,SKC,0.00,492.00,VWS V14.00,2013-03-08 16:30:00,
2013-03-08 10:35:00,26.3,20.4,30.25,SSW,205,3.0,10.0,78,0.00,,SKC,0.00,429.00,VWS V14.00,2013-03-08 16:35:00,
2013-03-08 10:40:00,25.8,19.9,30.25,SSE,165,6.0,10.0,78,0.00,,SKC,0.00,406.00,VWS V14.00,2013-03-08 16:40:00,
2013-03-08 10:45:00,25.8,20.5,30.24,SSW,200,6.0,9.0,80,0.00,,SKC,0.00,561.00,VWS V14.00,2013-03-08 16:45:00,
2013-03-08 10:50:00,26.4,20.8,30.25,South,177,5.0,6.0,79,0.00,,SKC,0.00,541.00,VWS V14.00,2013-03-08 16:50:00,
2013-03-08 10:55:00,26.8,21.2,30.24,SSW,210,4.0,6.0,79,0.00,,SKC,0.00,548.00,VWS V14.00,2013-03-08 16:55:00,
2013-03-08 11:00:00,27.6,22.0,30.24,South,183,7.0,9.0,79,0.00,,SKC,0.00,638.00,VWS V14.00,2013-03-08 17:00:00,
2013-03-08 11:05:00,28.4,22.1,30.23,South,180,7.0,8.0,77,0.00,,SKC,0.00,682.00,VWS V14.00,2013-03-08 17:05:00,
2013-03-08 11:10:00,28.3,21.7,30.23,SSE,157,5.0,7.0,76,0.00,,SKC,0.00,394.00,VWS V14.00,2013-03-08 17:10:00,
2013-03-08 11:15:00,28.4,22.1,30.24,SSW,204,2.0,7.0,77,0.00,,SKC,0.00,394.00,VWS V14.00,2013-03-08 17:15:00,
2013-03-08 11:20:00,29.2,22.9,30.24,South,187,5.0,6.0,77,0.00,,SKC,0.00,668.00,VWS V14.00,2013-03-08 17:20:00,
2013-03-08 11:25:00,29.9,23.3,30.24,SSW,202,5.0,7.0,76,0.00,,SKC,0.00,707.00,VWS V14.00,2013-03-08 17:25:00,
2013-03-08 11:30:00,30.7,23.7,30.24,SSW,209,3.0,7.0,75,0.00,,SKC,0.00,675.00,VWS V14.00,2013-03-08 17:30:00,
2013-03-08 11:35:00,31.5,23.9,30.24,SSW,207,2.0,8.0,73,0.00,,SKC,0.00,657.00,VWS V14.00,2013-03-08 17:35:00,
2013-03-08 11:40:00,32.4,24.4,30.24,SE,144,4.0,6.0,72,0.00,,SKC,0.00,652.00,VWS V14.00,2013-03-08 17:40:00,
2013-03-08 11:45:00,32.6,24.2,30.24,SSW,200,6.0,10.0,71,0.00,,SKC,0.00,724.00,VWS V14.00,2013-03-08 17:45:00,
2013-03-08 11:50:00,32.5,24.2,30.23,South,182,5.0,10.0,71,0.00,,SKC,0.00,617.00,VWS V14.00,2013-03-08 17:50:00,
2013-03-08 11:55:00,32.4,24.1,30.23,South,172,5.0,9.0,71,0.00,,SKC,0.00,654.00,VWS V14.00,2013-03-08 17:55:00,
2013-03-08 12:00:00,32.0,23.3,30.23,SSE,163,4.0,6.0,70,0.00,,SKC,0.00,628.00,VWS V14.00,2013-03-08 18:00:00,
2013-03-08 12:05:00,31.5,23.5,30.23,SE,126,4.0,7.0,72,0.00,,SKC,0.00,619.00,VWS V14.00,2013-03-08 18:05:00,
2013-03-08 12:10:00,31.4,23.8,30.23,SSE,153,4.0,6.0,73,0.00,,SKC,0.00,591.00,VWS V14.00,2013-03-08 18:10:00,
2013-03-08 12:15:00,31.1,23.5,30.23,SSW,208,5.0,9.0,73,0.00,,SKC,0.00,744.00,VWS V14.00,2013-03-08 18:15:00,
2013-03-08 12:20:00,31.3,23.7,30.23,SSE,161,5.0,9.0,73,0.00,,SKC,0.00,766.00,VWS V14.00,2013-03-08 18:20:00,
2013-03-08 12:25:00,31.5,24.2,30.22,SSE,157,3.0,9.0,74,0.00,,SKC,0.00,733.00,VWS V14.00,2013-03-08 18:25:00,
2013-03-08 12:30:00,31.7,24.0,30.22,South,186,6.0,10.0,73,0.00,,SKC,0.00,758.00,VWS V14.00,2013-03-08 18:30:00,
2013-03-08 12:35:00,31.9,24.2,30.22,SE,130,5.0,9.0,73,0.00,,SKC,0.00,742.00,VWS V14.00,2013-03-08 18:35:00,
2013-03-08 12:40:00,31.6,24.0,30.22,East,81,2.0,7.0,73,0.00,,SKC,0.00,671.00,VWS V14.00,2013-03-08 18:40:00,
2013-03-08 12:45:00,31.6,24.0,30.22,SSE,153,9.0,10.0,73,0.00,,SKC,0.00,705.00,VWS V14.00,2013-03-08 18:45:00,
2013-03-08 12:50:00,31.5,24.2,30.22,SSE,156,2.0,10.0,74,0.00,,SKC,0.00,633.00,VWS V14.00,2013-03-08 18:50:00,
2013-03-08 12:55:00,31.8,24.5,30.22,SSE,162,6.0,10.0,74,0.00,,SKC,0.00,717.00,VWS V14.00,2013-03-08 18:55:00,
2013-03-08 13:00:00,31.6,24.3,30.22,East,87,3.0,10.0,74,0.00,,SKC,0.00,689.00,VWS V14.00,2013-03-08 19:00:00,
2013-03-08 13:05:00,31.2,24.2,30.21,ESE,117,5.0,9.0,75,0.00,,SKC,0.00,691.00,VWS V14.00,2013-03-08 19:05:00,
2013-03-08 13:10:00,31.2,24.2,30.21,SE,131,7.0,9.0,75,0.00,,SKC,0.00,649.00,VWS V14.00,2013-03-08 19:10:00,
2013-03-08 13:15:00,31.0,24.0,30.20,SE,130,4.0,11.0,75,0.00,,SKC,0.00,645.00,VWS V14.00,2013-03-08 19:15:00,
2013-03-08 13:20:00,31.1,24.4,30.20,SE,144,6.0,10.0,76,0.00,,SKC,0.00,631.00,VWS V14.00,2013-03-08 19:20:00,
2013-03-08 13:25:00,30.9,24.2,30.21,South,173,6.0,12.0,76,0.00,,SKC,0.00,561.00,VWS V14.00,2013-03-08 19:25:00,
2013-03-08 13:30:00,31.0,24.3,30.20,SSE,159,6.0,12.0,76,0.00,,SKC,0.00,531.00,VWS V14.00,2013-03-08 19:30:00,
2013-03-08 13:35:00,30.8,24.1,30.20,South,178,6.0,12.0,76,0.00,,SKC,0.00,617.00,VWS V14.00,2013-03-08 19:35:00,
2013-03-08 13:40:00,30.9,24.5,30.21,SSE,150,9.0,12.0,77,0.00,,SKC,0.00,689.00,VWS V14.00,2013-03-08 19:40:00,
2013-03-08 13:45:00,30.6,24.3,30.20,South,169,7.0,13.0,77,0.00,,SKC,0.00,555.00,VWS V14.00,2013-03-08 19:45:00,
2013-03-08 13:50:00,30.4,24.4,30.20,SSE,163,11.0,13.0,78,0.00,,SKC,0.00,587.00,VWS V14.00,2013-03-08 19:50:00,
2013-03-08 13:55:00,30.4,24.4,30.20,SSE,167,11.0,12.0,78,0.00,,SKC,0.00,643.00,VWS V14.00,2013-03-08 19:55:00,
2013-03-08 14:00:00,30.5,24.5,30.20,South,171,8.0,14.0,78,0.00,,SKC,0.00,652.00,VWS V14.00,2013-03-08 20:00:00,
2013-03-08 14:05:00,30.6,24.6,30.20,SSE,155,10.0,12.0,78,0.00,,SKC,0.00,626.00,VWS V14.00,2013-03-08 20:05:00,
2013-03-08 14:10:00,30.7,24.7,30.20,SE,140,6.0,13.0,78,0.00,,SKC,0.00,654.00,VWS V14.00,2013-03-08 20:10:00,
2013-03-08 14:15:00,30.9,24.9,30.20,South,177,4.0,12.0,78,0.00,,SKC,0.00,613.00,VWS V14.00,2013-03-08 20:15:00,
2013-03-08 14:20:00,31.3,24.9,30.20,SE,124,5.0,12.0,77,0.00,,SKC,0.00,538.00,VWS V14.00,2013-03-08 20:20:00,
2013-03-08 14:25:00,31.4,25.0,30.20,SE,130,7.0,11.0,77,0.00,,SKC,0.00,594.00,VWS V14.00,2013-03-08 20:25:00,
2013-03-08 14:30:00,31.3,24.9,30.20,SE,136,7.0,12.0,77,0.00,,SKC,0.00,538.00,VWS V14.00,2013-03-08 20:30:00,
2013-03-08 14:35:00,31.2,24.8,30.19,South,181,7.0,11.0,77,0.00,,SKC,0.00,452.00,VWS V14.00,2013-03-08 20:35:00,
2013-03-08 14:40:00,30.9,24.5,30.20,SSE,165,8.0,12.0,77,0.00,,SKC,0.00,482.00,VWS V14.00,2013-03-08 20:40:00,
2013-03-08 14:45:00,31.0,25.0,30.20,SSE,160,5.0,10.0,78,0.00,,SKC,0.00,380.00,VWS V14.00,2013-03-08 20:45:00,
2013-03-08 14:50:00,31.1,25.1,30.20,SE,139,4.0,13.0,78,0.00,,SKC,0.00,378.00,VWS V14.00,2013-03-08 20:50:00,
2013-03-08 14:55:00,31.1,25.1,30.20,SSE,159,10.0,10.0,78,0.00,,SKC,0.00,415.00,VWS V14.00,2013-03-08 20:55:00,
2013-03-08 15:00:00,31.1,25.1,30.19,SSE,165,4.0,10.0,78,0.00,,SKC,0.00,462.00,VWS V14.00,2013-03-08 21:00:00,
2013-03-08 15:05:00,31.3,25.2,30.19,South,174,9.0,11.0,78,0.00,,SKC,0.00,487.00,VWS V14.00,2013-03-08 21:05:00,
2013-03-08 15:10:00,31.4,25.4,30.19,SE,142,6.0,11.0,78,0.00,,SKC,0.00,515.00,VWS V14.00,2013-03-08 21:10:00,
2013-03-08 15:15:00,31.4,25.4,30.19,ESE,117,10.0,14.0,78,0.00,,SKC,0.00,441.00,VWS V14.00,2013-03-08 21:15:00,
2013-03-08 15:20:00,31.1,25.4,30.19,SSE,157,6.0,11.0,79,0.00,,SKC,0.00,357.00,VWS V14.00,2013-03-08 21:20:00,
2013-03-08 15:25:00,30.9,25.2,30.19,ESE,113,6.0,12.0,79,0.00,,SKC,0.00,318.00,VWS V14.00,2013-03-08 21:25:00,
2013-03-08 15:30:00,30.9,25.5,30.19,ESE,117,5.0,10.0,80,0.00,,SKC,0.00,432.00,VWS V14.00,2013-03-08 21:30:00,
2013-03-08 15:35:00,31.1,25.7,30.18,SE,124,6.0,13.0,80,0.00,,SKC,0.00,483.00,VWS V14.00,2013-03-08 21:35:00,
2013-03-08 15:40:00,31.3,25.9,30.18,ESE,120,4.0,13.0,80,0.00,,SKC,0.00,392.00,VWS V14.00,2013-03-08 21:40:00,
2013-03-08 15:45:00,31.4,25.6,30.18,SE,140,9.0,13.0,79,0.00,,SKC,0.00,359.00,VWS V14.00,2013-03-08 21:45:00,
2013-03-08 15:50:00,31.4,25.6,30.18,ESE,121,3.0,11.0,79,0.00,,SKC,0.00,283.00,VWS V14.00,2013-03-08 21:50:00,
2013-03-08 15:55:00,31.2,25.8,30.18,SE,139,10.0,13.0,80,0.00,,SKC,0.00,239.00,VWS V14.00,2013-03-08 21:55:00,
2013-03-08 16:00:00,31.1,25.7,30.17,SSE,147,13.0,14.0,80,0.00,,SKC,0.00,183.00,VWS V14.00,2013-03-08 22:00:00,
2013-03-08 16:05:00,31.0,25.9,30.18,SE,125,7.0,13.0,81,0.00,,SKC,0.00,185.00,VWS V14.00,2013-03-08 22:05:00,
2013-03-08 16:10:00,30.8,25.7,30.18,ESE,123,9.0,10.0,81,0.00,,SKC,0.00,223.00,VWS V14.00,2013-03-08 22:10:00,
2013-03-08 16:15:00,30.8,25.7,30.18,ESE,111,6.0,12.0,81,0.00,,SKC,0.00,232.00,VWS V14.00,2013-03-08 22:15:00,
2013-03-08 16:20:00,30.9,25.8,30.17,ESE,117,11.0,12.0,81,0.00,,SKC,0.00,216.00,VWS V14.00,2013-03-08 22:20:00,
2013-03-08 16:25:00,30.8,25.7,30.17,SE,132,5.0,14.0,81,0.00,,SKC,0.00,218.00,VWS V14.00,2013-03-08 22:25:00,
2013-03-08 16:30:00,30.9,25.8,30.17,SE,144,11.0,12.0,81,0.00,,SKC,0.00,218.00,VWS V14.00,2013-03-08 22:30:00,
2013-03-08 16:35:00,30.9,25.8,30.16,SSE,150,7.0,12.0,81,0.00,,SKC,0.00,223.00,VWS V14.00,2013-03-08 22:35:00,
2013-03-08 16:40:00,30.8,25.7,30.16,South,170,7.0,13.0,81,0.00,,SKC,0.00,241.00,VWS V14.00,2013-03-08 22:40:00,
2013-03-08 16:45:00,30.9,25.8,30.16,SE,146,7.0,10.0,81,0.00,,SKC,0.00,243.00,VWS V14.00,2013-03-08 22:45:00,
2013-03-08 16:50:00,31.0,25.9,30.16,SSE,158,9.0,10.0,81,0.00,,SKC,0.00,128.00,VWS V14.00,2013-03-08 22:50:00,
2013-03-08 16:55:00,30.8,25.7,30.16,SE,146,5.0,16.0,81,0.00,,SKC,0.00,102.00,VWS V14.00,2013-03-08 22:55:00,
2013-03-08 17:00:00,30.6,25.8,30.16,SSE,148,5.0,12.0,82,0.00,,SKC,0.00,83.00,VWS V14.00,2013-03-08 23:00:00,
2013-03-08 17:05:00,30.4,25.6,30.16,SSE,151,5.0,11.0,82,0.00,,SKC,0.00,79.00,VWS V14.00,2013-03-08 23:05:00,
2013-03-08 17:10:00,30.3,25.5,30.16,SSE,159,4.0,8.0,82,0.00,,SKC,0.00,79.00,VWS V14.00,2013-03-08 23:10:00,
2013-03-08 17:15:00,30.2,25.4,30.15,SE,132,5.0,10.0,82,0.00,,SKC,0.00,74.00,VWS V14.00,2013-03-08 23:15:00,
2013-03-08 17:20:00,30.2,25.4,30.15,SSE,160,7.0,7.0,82,0.00,,SKC,0.00,74.00,VWS V14.00,2013-03-08 23:20:00,
2013-03-08 17:25:00,30.1,25.3,30.16,SE,134,5.0,11.0,82,0.00,,SKC,0.00,69.00,VWS V14.00,2013-03-08 23:25:00,
2013-03-08 17:30:00,30.1,25.6,30.16,SSE,150,5.0,10.0,83,0.00,,SKC,0.00,63.00,VWS V14.00,2013-03-08 23:30:00,
2013-03-08 17:35:00,30.0,25.5,30.15,ESE,118,3.0,10.0,83,0.00,,SKC,0.00,49.00,VWS V14.00,2013-03-08 23:35:00,
2013-03-08 17:40:00,30.0,25.5,30.15,SE,124,10.0,10.0,83,0.00,,SKC,0.00,47.00,VWS V14.00,2013-03-08 23:40:00,
2013-03-08 17:45:00,29.9,25.4,30.15,SE,142,3.0,11.0,83,0.00,,SKC,0.00,44.00,VWS V14.00,2013-03-08 23:45:00,
2013-03-08 17:50:00,29.9,25.4,30.15,SSE,160,7.0,10.0,83,0.00,,SKC,0.00,26.00,VWS V14.00,2013-03-08 23:50:00,
2013-03-08 17:55:00,29.9,25.4,30.15,SSE,160,8.0,10.0,83,0.00,,SKC,0.00,18.00,VWS V14.00,2013-03-08 23:55:00,
2013-03-08 18:00:00,29.8,25.3,30.15,SSE,158,6.0,10.0,83,0.00,,SKC,0.00,13.00,VWS V14.00,2013-03-09 00:00:00,
2013-03-08 18:05:00,29.8,25.6,30.15,SSE,158,5.0,10.0,84,0.00,,SKC,0.00,9.00,VWS V14.00,2013-03-09 00:05:00,
2013-03-08 18:10:00,29.7,25.5,30.15,SE,135,5.0,9.0,84,0.00,,SKC,0.00,5.00,VWS V14.00,2013-03-09 00:10:00,
2013-03-08 18:15:00,29.7,25.5,30.14,SSE,158,5.0,10.0,84,0.00,,SKC,0.00,0.00,VWS V14.00,2013-03-09 00:15:00,
2013-03-08 18:20:00,29.7,25.5,30.14,SSE,158,6.0,11.0,84,0.00,,SKC,0.00,0.00,VWS V14.00,2013-03-09 00:20:00,
2013-03-08 18:25:00,29.7,25.5,30.13,SSE,158,8.0,13.0,84,0.00,,SKC,0.00,0.00,VWS V14.00,2013-03-09 00:25:00,
2013-03-08 18:30:00,29.7,25.5,30.13,SSE,158,7.0,12.0,84,0.00,,SKC,0.00,0.00,VWS V14.00,2013-03-09 00:30:00,
2013-03-08 18:35:00,29.7,25.5,30.13,SE,135,7.0,12.0,84,0.00,,SKC,0.00,0.00,VWS V14.00,2013-03-09 00:35:00,
2013-03-08 18:40:00,29.7,25.5,30.13,SE,135,7.0,12.0,84,0.00,,SKC,0.00,0.00,VWS V14.00,2013-03-09 00:40:00,
2013-03-08 18:45:00,29.7,25.5,30.13,SE,135,6.0,12.0,84,0.00,,SKC,0.00,0.00,VWS V14.00,2013-03-09 00:45:00,
2013-03-08 18:50:00,29.6,25.6,30.12,SE,135,7.0,11.0,85,0.00,,SKC,0.00,0.00,VWS V14.00,2013-03-09 00:50:00,
2013-03-08 18:55:00,29.6,25.6,30.12,SSE,158,7.0,11.0,85,0.00,,SKC,0.00,0.00,VWS V14.00,2013-03-09 00:55:00,
2013-03-08 19:00:00,29.7,25.8,30.12,SE,135,8.0,12.0,85,0.00,,SKC,0.00,0.00,VWS V14.00,2013-03-09 01:00:00,
2013-03-08 19:05:00,29.7,25.8,30.11,SE,135,7.0,12.0,85,0.00,,SKC,0.00,0.00,VWS V14.00,2013-03-09 01:05:00,
2013-03-08 19:10:00,29.7,25.8,30.11,SE,135,6.0,12.0,85,0.00,,SKC,0.00,0.00,VWS V14.00,2013-03-09 01:10:00,
2013-03-08 19:15:00,29.7,25.8,30.11,SE,135,6.0,10.0,85,0.00,,SKC,0.00,0.00,VWS V14.00,2013-03-09 01:15:00,
2013-03-08 19:20:00,29.7,25.8,30.10,SE,135,6.0,10.0,85,0.00,,SKC,0.00,0.00,VWS V14.00,2013-03-09 01:20:00,
2013-03-08 19:25:00,29.6,25.6,30.10,SE,135,6.0,10.0,85,0.00,,SKC,0.00,0.00,VWS V14.00,2013-03-09 01:25:00,
2013-03-08 19:30:00,29.6,25.6,30.10,SSE,158,7.0,11.0,85,0.00,,SKC,0.00,0.00,VWS V14.00,2013-03-09 01:30:00,
2013-03-08 19:35:00,29.6,25.6,30.10,SE,135,6.0,10.0,85,0.00,,SKC,0.00,0.00,VWS V14.00,2013-03-09 01:35:00,
2013-03-08 19:40:00,29.5,25.6,30.10,SE,135,6.0,10.0,85,0.00,,SKC,0.00,0.00,VWS V14.00,2013-03-09 01:40:00,
2013-03-08 19:45:00,29.4,27.4,30.10,SE,135,7.0,12.0,92,0.00,,SKC,0.00,0.00,VWS V14.00,2013-03-09 01:45:00,
2013-03-08 19:50:00,29.4,25.5,30.09,SSE,158,5.0,10.0,85,0.00,,SKC,0.00,0.00,VWS V14.00,2013-03-09 01:50:00,
2013-03-08 19:55:00,29.3,25.6,30.09,SE,135,6.0,9.0,86,0.00,,SKC,0.00,0.00,VWS V14.00,2013-03-09 01:55:00,
2013-03-08 20:00:00,29.2,25.5,30.10,SE,135,4.0,7.0,86,0.00,,SKC,0.00,0.00,VWS V14.00,2013-03-09 02:00:00,
2013-03-08 20:05:00,29.2,25.5,30.09,SE,135,6.0,15.0,86,0.00,,SKC,0.00,0.00,VWS V14.00,2013-03-09 02:05:00,
2013-03-08 20:10:00,29.2,25.5,30.09,SSE,158,7.0,12.0,86,0.00,,SKC,0.00,0.00,VWS V14.00,2013-03-09 02:10:00,
2013-03-08 20:15:00,29.2,25.5,30.09,SE,135,7.0,14.0,86,0.00,,SKC,0.00,0.00,VWS V14.00,2013-03-09 02:15:00,
2013-03-08 20:20:00,29.2,25.8,30.09,SE,135,7.0,12.0,87,0.00,,SKC,0.00,0.00,VWS V14.00,2013-03-09 02:20:00,
2013-03-08 20:25:00,29.3,25.9,30.08,SE,135,7.0,11.0,87,0.00,,SKC,0.00,0.00,VWS V14.00,2013-03-09 02:25:00,
2013-03-08 20:30:00,29.2,25.8,30.08,SE,135,6.0,10.0,87,0.00,,SKC,0.00,0.00,VWS V14.00,2013-03-09 02:30:00,
2013-03-08 20:35:00,29.3,25.9,30.08,SE,135,6.0,12.0,87,0.00,,SKC,0.00,0.00,VWS V14.00,2013-03-09 02:35:00,
2013-03-08 20:40:00,29.3,26.2,30.08,SSE,158,7.0,12.0,88,0.00,,SKC,0.00,0.00,VWS V14.00,2013-03-09 02:40:00,
2013-03-08 20:45:00,29.4,26.3,30.07,SE,135,7.0,12.0,88,0.00,,SKC,0.00,0.00,VWS V14.00,2013-03-09 02:45:00,
2013-03-08 20:50:00,29.6,26.5,30.08,SSE,158,6.0,10.0,88,0.00,,SKC,0.00,0.00,VWS V14.00,2013-03-09 02:50:00,
2013-03-08 20:55:00,29.6,26.5,30.08,SSE,158,6.0,11.0,88,0.00,,SKC,0.00,0.00,VWS V14.00,2013-03-09 02:55:00,
2013-03-08 21:00:00,29.8,26.7,30.08,SSE,158,6.0,10.0,88,0.00,,SKC,0.00,0.00,VWS V14.00,2013-03-09 03:00:00,
2013-03-08 21:05:00,29.9,26.8,30.09,SSE,158,7.0,12.0,88,0.00,,SKC,0.00,0.00,VWS V14.00,2013-03-09 03:05:00,
2013-03-08 21:10:00,30.1,27.0,30.08,SE,135,5.0,9.0,88,0.00,,SKC,0.00,0.00,VWS V14.00,2013-03-09 03:10:00,
2013-03-08 21:15:00,30.2,27.1,30.08,SE,135,6.0,12.0,88,0.00,,SKC,0.00,0.00,VWS V14.00,2013-03-09 03:15:00,
2013-03-08 21:20:00,30.3,27.2,30.08,SE,135,5.0,7.0,88,0.00,,SKC,0.00,0.00,VWS V14.00,2013-03-09 03:20:00,
2013-03-08 21:25:00,30.3,27.2,30.08,SE,135,6.0,13.0,88,0.00,,SKC,0.00,0.00,VWS V14.00,2013-03-09 03:25:00,
2013-03-08 21:30:00,30.5,27.4,30.08,SE,135,6.0,12.0,88,0.00,,SKC,0.00,0.00,VWS V14.00,2013-03-09 03:30:00,
2013-03-08 21:35:00,30.5,27.4,30.07,SE,135,6.0,12.0,88,0.00,,SKC,0.00,0.00,VWS V14.00,2013-03-09 03:35:00,
2013-03-08 21:40:00,30.6,27.5,30.07,SE,135,5.0,10.0,88,0.00,,SKC,0.00,0.00,VWS V14.00,2013-03-09 03:40:00,
2013-03-08 21:45:00,30.6,27.8,30.08,SSE,158,5.0,10.0,89,0.00,,SKC,0.00,0.00,VWS V14.00,2013-03-09 03:45:00,
2013-03-08 21:50:00,30.8,28.0,30.07,SE,135,5.0,10.0,89,0.00,,SKC,0.00,0.00,VWS V14.00,2013-03-09 03:50:00,
2013-03-08 21:55:00,30.8,28.0,30.07,SSE,158,6.0,10.0,89,0.00,,SKC,0.00,0.00,VWS V14.00,2013-03-09 03:55:00,
2013-03-08 22:00:00,30.9,28.0,30.06,SE,135,7.0,11.0,89,0.00,,SKC,0.00,0.00,VWS V14.00,2013-03-09 04:00:00,
2013-03-08 22:05:00,30.9,28.0,30.07,SSE,158,5.0,9.0,89,0.00,,SKC,0.00,0.00,VWS V14.00,2013-03-09 04:05:00,
2013-03-08 22:10:00,31.0,28.1,30.08,SSE,158,4.0,8.0,89,0.00,,SKC,0.00,0.00,VWS V14.00,2013-03-09 04:10:00,
2013-03-08 22:15:00,31.2,28.3,30.08,South,180,4.0,10.0,89,0.00,,SKC,0.00,0.00,VWS V14.00,2013-03-09 04:15:00,
2013-03-08 22:20:00,31.3,28.4,30.08,SSE,158,5.0,7.0,89,0.00,,SKC,0.00,0.00,VWS V14.00,2013-03-09 04:20:00,
2013-03-08 22:25:00,31.4,28.5,30.07,SSE,158,5.0,7.0,89,0.00,,SKC,0.00,0.00,VWS V14.00,2013-03-09 04:25:00,
2013-03-08 22:30:00,31.5,28.6,30.07,SE,135,3.0,5.0,89,0.00,,SKC,0.00,0.00,VWS V14.00,2013-03-09 04:30:00,
2013-03-08 22:35:00,31.5,28.6,30.06,SSE,158,4.0,7.0,89,0.00,,SKC,0.00,0.00,VWS V14.00,2013-03-09 04:35:00,
2013-03-08 22:40:00,31.5,28.6,30.06,SE,135,4.0,7.0,89,0.00,,SKC,0.00,0.00,VWS V14.00,2013-03-09 04:40:00,
2013-03-08 22:45:00,31.5,28.6,30.06,SE,135,4.0,7.0,89,0.00,,SKC,0.00,0.00,VWS V14.00,2013-03-09 04:45:00,
2013-03-08 22:50:00,31.4,28.8,30.05,SSE,158,6.0,10.0,90,0.00,,SKC,0.00,0.00,VWS V14.00,2013-03-09 04:50:00,
2013-03-08 22:55:00,31.4,28.8,30.05,SSE,158,5.0,11.0,90,0.00,,SKC,0.00,0.00,VWS V14.00,2013-03-09 04:55:00,
2013-03-08 23:00:00,31.4,28.8,30.05,SSE,158,5.0,10.0,90,0.00,,SKC,0.00,0.00,VWS V14.00,2013-03-09 05:00:00,
2013-03-08 23:05:00,31.5,29.2,30.05,SSE,158,5.0,11.0,91,0.00,,SKC,0.00,0.00,VWS V14.00,2013-03-09 05:05:00,
2013-03-08 23:10:00,31.7,29.4,30.05,South,180,6.0,12.0,91,0.00,,SKC,0.00,0.00,VWS V14.00,2013-03-09 05:10:00,
2013-03-08 23:15:00,32.0,29.9,30.04,South,180,7.0,12.0,92,0.00,,SKC,0.00,0.00,VWS V14.00,2013-03-09 05:15:00,
2013-03-08 23:20:00,32.3,30.0,30.04,South,180,6.0,11.0,91,0.00,,SKC,0.00,0.00,VWS V14.00,2013-03-09 05:20:00,
2013-03-08 23:25:00,32.5,30.2,30.03,South,180,8.0,12.0,91,0.00,,SKC,0.00,0.00,VWS V14.00,2013-03-09 05:25:00,
2013-03-08 23:30:00,32.7,30.4,30.03,SSE,158,10.0,16.0,91,0.00,,SKC,0.00,0.00,VWS V14.00,2013-03-09 05:30:00,
2013-03-08 23:35:00,32.9,30.3,30.03,South,180,8.0,13.0,90,0.00,,SKC,0.00,0.00,VWS V14.00,2013-03-09 05:35:00,
2013-03-08 23:40:00,32.9,30.0,30.03,SSE,158,10.0,15.0,89,0.00,,SKC,0.00,0.00,VWS V14.00,2013-03-09 05:40:00,
2013-03-08 23:45:00,33.0,30.1,30.03,South,180,9.0,15.0,89,0.00,,SKC,0.00,0.00,VWS V14.00,2013-03-09 05:45:00,
2013-03-08 23:50:00,33.0,30.4,30.03,South,180,7.0,12.0,90,0.00,,SKC,0.00,0.00,VWS V14.00,2013-03-09 05:50:00,